DW2130 Weather Reports


time (UTC)temp
C
wind
direction
speed
KPH
gust
KPH
rain 1hr
cm
rain 24hr
cm
rain mn
cm
humidity
%
barometer
mb
20260506201529 25 350 0.0 0.0 0.00 0.00 0.00 79 1014.2
20260506200026 25 345 0.0 0.0 0.00 0.00 0.00 79 1014.2
20260506194520 25 35 0.0 0.0 0.00 0.00 0.00 78 1014.2
20260506193016 25 316 0.0 0.0 0.00 0.00 0.00 79 1014.4
20260506191515 25 302 0.0 0.0 0.00 0.00 0.00 79 1014.7
20260506190008 -67 190 3.2 0.0 0.00 0.00 0.00 1014.9
20260506184502 -67 188 4.8 0.0 0.00 0.00 0.00 1015.2
20260506183110 -67 200 6.4 0.0 0.00 0.00 0.00 1015.3
20260506181600 -67 185 4.8 0.0 0.00 0.00 0.00 1015.3
20260506180053 -67 214 6.4 0.0 0.00 0.00 0.00 1015.6
20260506174555 -67 206 6.4 0.0 0.00 0.00 0.00 1015.7
20260506173051 -67 184 3.2 0.0 0.00 0.00 0.00 1016.2
20260506171538 -67 202 1.6 0.0 0.00 0.00 0.00 1016.5
20260506170033 -67 159 1.6 0.0 0.00 0.00 0.00 1016.5
20260506164528 -67 171 1.6 0.0 0.00 0.00 0.00 1016.6
20260506163039 -67 223 1.6 0.0 0.00 0.00 0.00 1016.7
20260506161518 -67 161 3.2 0.0 0.00 0.00 0.00 1016.9
20260506160014 -67 155 3.2 0.0 0.00 0.00 0.00 1016.9
20260506154526 -67 189 3.2 0.0 0.00 0.00 0.00 1016.9
20260506153005 -66 164 0.0 0.0 0.00 0.00 0.00 1017.0
20260506151502 -66 209 1.6 0.0 0.00 0.00 0.00 1017.1
20260506150057 -65 150 0.0 0.0 0.00 0.00 0.00 1017.0
20260506144552 -65 207 3.2 0.0 0.00 0.00 0.00 1016.7
20260506143047 -65 191 1.6 0.0 0.00 0.00 0.00 1016.8
20260506141543 -63 198 4.8 0.0 0.00 0.00 0.00 1016.5
20260506140039 -60 194 3.2 0.0 0.00 0.00 0.00 1016.5
20260506134535 -59 207 3.2 0.0 0.00 0.00 0.00 1016.4
20260506133033 -55 200 1.6 0.0 0.00 0.00 0.00 1016.1
20260506131531 -51 201 3.2 0.0 0.00 0.00 0.00 1016.1
20260506130021 -45 238 0.0 0.0 0.00 0.00 0.00 1016.3
20260506124517 -44 196 0.0 0.0 0.00 0.00 0.00 1016.2
20260506123013 -43 182 1.6 0.0 0.00 0.00 0.00 1016.0
20260506121508 -42 200 1.6 0.0 0.00 0.00 0.00 1015.9
20260506120010 -42 198 0.0 0.0 0.00 0.00 0.00 1015.7
20260506114600 -41 174 0.0 0.0 0.00 0.00 0.00 1015.6
20260506113055 -41 193 0.0 0.0 0.00 0.00 0.00 1015.4
20260506111551 -41 197 0.0 0.0 0.00 0.00 0.00 1015.4
20260506110047 -42 181 0.0 0.0 0.00 0.00 0.00 1015.4
20260506104544 -42 199 0.0 0.0 0.00 0.00 0.00 1015.4
20260506103038 -43 202 0.0 0.0 0.00 0.00 0.00 1015.2
20260506101534 -43 197 0.0 0.0 0.00 0.00 0.00 1015.0
20260506100031 -43 204 0.0 0.0 0.00 0.00 0.00 1015.2
20260506094525 -44 197 0.0 0.0 0.00 0.00 0.00 1014.9
20260506093020 -45 197 0.0 0.0 0.00 0.00 0.00 1015.0
20260506091517 -46 157 0.0 0.0 0.00 0.00 0.00 1015.2
20260506090012 -50 192 0.0 0.0 0.00 0.00 0.00 1015.0
20260506084509 -52 180 0.0 0.0 0.00 0.00 0.00 1014.8
20260506083005 -54 196 0.0 0.0 0.00 0.00 0.00 1015.0
20260506081613 -56 196 0.0 0.0 0.00 0.00 0.00 1014.9
20260506073047 -64 179 0.0 0.0 0.00 0.00 0.00 1014.9
20260506071542 -65 202 0.0 0.0 0.00 0.00 0.00 1014.9
20260506061527 -67 147 0.0 0.0 0.00 0.00 0.00 1015.5
20260506044557 -67 161 0.0 0.0 0.00 0.00 0.00 1015.9
20260506043055 -67 194 0.0 0.0 0.00 0.00 0.00 1015.9
20260506041559 -67 134 0.0 0.0 0.00 0.00 0.00 1016.2
20260506040045 -67 178 0.0 0.0 0.00 0.00 0.00 1016.2
20260506034550 -67 117 0.0 0.0 0.00 0.00 0.00 1016.2
20260506033038 -67 131 1.6 0.0 0.00 0.00 0.00 1016.4
20260506031532 -67 197 1.6 0.0 0.00 0.00 0.00 1016.2
20260506030027 -67 163 1.6 0.0 0.00 0.00 0.00 1016.2
20260506024528 -67 172 1.6 0.0 0.00 0.00 0.00 1016.0
20260506023018 -67 158 3.2 0.0 0.00 0.00 0.00 1016.1
20260506021514 -67 119 1.6 0.0 0.00 0.00 0.00 1015.8
20260506020009 -67 194 1.6 0.0 0.00 0.00 0.00 1015.8
20260506014504 -67 128 1.6 0.0 0.00 0.00 0.00 1015.8
20260506013001 -67 135 1.6 0.0 0.00 0.00 0.00 1016.0
20260506011605 -67 129 3.2 0.0 0.00 0.00 0.00 1015.9
20260506010053 -67 149 1.6 0.0 0.00 0.00 0.00 1015.7
20260506004547 -67 120 3.2 0.0 0.00 0.00 0.00 1015.6
20260506003044 -67 136 3.2 0.0 0.00 0.00 0.00 1015.3
20260506001539 -67 113 4.8 0.0 0.00 0.00 0.00 1015.3
20260506000036 -67 106 3.2 0.0 0.00 0.00 0.00 1015.5
20260505234530 -67 124 3.2 0.0 0.00 0.00 0.00 1015.4
20260505233028 -67 109 3.2 0.0 0.00 0.00 0.00 1015.6
20260505231523 -67 155 3.2 0.0 0.00 0.00 0.00 1015.6
20260505230016 -67 117 3.2 0.0 0.00 0.00 0.00 1015.4
20260505224513 -67 128 3.2 0.0 0.00 0.00 0.00 1015.6
20260505223007 -67 136 3.2 0.0 0.00 0.00 0.00 1015.5
20260505221504 -67 127 3.2 0.0 0.00 0.00 0.00 1015.6
20260505220104 -67 108 3.2 0.0 0.00 0.00 0.00 1015.6
20260505214557 -67 131 3.2 0.0 0.00 0.00 0.00 1015.6
20260505213052 -67 155 4.8 0.0 0.00 0.00 0.00 1015.7
20260505211557 -67 124 6.4 0.0 0.00 0.00 0.00 1015.7
20260505210041 -67 96 4.8 0.0 0.00 0.00 0.00 1015.7
20260505204538 -67 126 8.0 0.0 0.00 0.00 0.00 1015.7
20260505203033 -67 113 6.4 0.0 0.00 0.00 0.00 1015.9